Location: Diati
(11.8376°N, 2.5966°E)
Time: 18:09:05
(UTC+00:00)

ATLAS 2AS CENTAUR R/B - Pass Details

Date: 21 September 2020
Orbit: 939 x 1273 km, 63.7° (Epoch: 19 October)

Event Time Altitude Azimuth Distance (km) Brightness Sun altitude
Rises 18:36:58 0° 196° (SSW) 4,027 5.9 -13.3°
Reaches altitude 10° 18:39:38 10° 194° (SSW) 3,108 5.3 -13.9°
Maximum altitude 18:47:07 68° 112° (ESE) 1,322 2.9 -15.8°
Drops below altitude 10° 18:54:58 10° 31° (NNE) 3,254 5.0 -17.7°
Sets 18:57:49 0° 29° (NNE) 4,227 5.6 -18.4°
